Key West, FL

3:29 PM EST on January 19, 2018 (GMT -0500)
Key West International

Weather History for KEYW - May, 2013

Change the Weather History Date:

Monday, May 27, 2013

  Actual Average Record
Temperature  
Mean Temperature 82 °F 82 °F  
Max Temperature 86 °F 86 °F 90 °F (2000)
Min Temperature 78 °F 77 °F 70 °F (1894)
Degree Days  
Heating Degree Days 0 0  
Month to date heating degree days 0 0  
Since 1 July heating degree days 28 73  
Cooling Degree Days 17 17  
Month to date cooling degree days 423 409  
Year to date cooling degree days 1569 1363  
Growing Degree Days 32 (Base 50)    
Moisture  
Dew Point 71 °F    
Average Humidity 73    
Maximum Humidity 85    
Minimum Humidity 61    
Precipitation  
Precipitation 0.05 in 0.13 in 2.95 in (1984)
Month to date precipitation 4.79 2.43  
Year to date precipitation 10.74 10.06  
Snow  
Snow 0.00 in - - ()
Month to date snowfall 0.0  
Since 1 July snowfall 0.0  
Snow Depth 0.00 in    
Sea Level Pressure  
Sea Level Pressure 30.06 in    
Wind  
Wind Speed 13 mph (East)    
Max Wind Speed 25 mph    
Max Gust Speed 32 mph    
Visibility 10 miles    
Events      
T = Trace of Precipitation, MM = Missing Value Source: NWS Daily Summary

Daily Weather History Graph

Daily Weather History Graph

Search for Another Location

Airport or City:

Trip Planner

Search our weather history database for the weather conditions in past years. The results will help you decide how hot, cold, wet, or windy it might be!

Date:

Astronomy

May. 27, 2013 Rise Set
Actual Time 6:39 AM EDT 8:09 PM EDT
Civil Twilight 6:13 AM EDT 8:34 PM EDT
Nautical Twilight 5:43 AM EDT 9:04 PM EDT
Astronomical Twilight 5:12 AM EDT 9:36 PM EDT
Moon 10:54 PM EDT (5/27) 9:10 AM EDT (5/27)
Length of Visible Light 14h 20m
Length of Day
13h 30m
Waning Gibbous, 91% of the Moon is Illuminated
May 27
Waning Gibbous
May 31
Last Quarter
Jun 8
New
Jun 16
First Quarter
Jun 23
Full

Hourly Weather History & Observations

Time (EDT) Temp. Heat Index Dew Point Humidity Pressure Visibility Wind Dir Wind Speed Gust Speed Precip Events Conditions
12:53 AM 80.1 °F 82.3 °F 66.9 °F 64% 30.11 in 10.0 mi East 13.8 mph 21.9 mph N/A   Clear
1:53 AM 80.1 °F 82.1 °F 66.0 °F 62% 30.10 in 10.0 mi ENE 11.5 mph - N/A   Partly Cloudy
2:04 AM 80.6 °F 82.7 °F 66.2 °F 61% 30.10 in 10.0 mi ENE 10.4 mph - N/A   Partly Cloudy
2:53 AM 80.1 °F 82.7 °F 68.0 °F 67% 30.08 in 10.0 mi ENE 6.9 mph - N/A   Mostly Cloudy
3:53 AM 79.0 °F - 69.1 °F 72% 30.07 in 10.0 mi ENE 8.1 mph - N/A   Partly Cloudy
4:53 AM 78.1 °F - 70.0 °F 76% 30.06 in 10.0 mi ENE 9.2 mph - N/A   Clear
5:25 AM 78.8 °F - 69.8 °F 74% 30.06 in 10.0 mi ENE 5.8 mph - N/A   Scattered Clouds
5:53 AM 78.1 °F - 71.1 °F 79% 30.06 in 10.0 mi ENE 4.6 mph - N/A   Partly Cloudy
6:53 AM 79.0 °F - 70.0 °F 74% 30.06 in 10.0 mi East 9.2 mph - N/A   Partly Cloudy
7:53 AM 80.1 °F 83.6 °F 71.1 °F 74% 30.07 in 10.0 mi East 12.7 mph 19.6 mph N/A   Clear
8:53 AM 82.0 °F 86.7 °F 72.0 °F 71% 30.08 in 10.0 mi East 11.5 mph - N/A   Partly Cloudy
9:53 AM 82.0 °F 86.7 °F 72.0 °F 71% 30.08 in 10.0 mi ESE 15.0 mph 23.0 mph N/A   Scattered Clouds
10:53 AM 84.0 °F 89.6 °F 72.0 °F 67% 30.09 in 10.0 mi East 12.7 mph 20.7 mph N/A   Partly Cloudy
11:53 AM 82.0 °F 87.4 °F 73.0 °F 74% 30.09 in 10.0 mi ESE 16.1 mph - N/A   Partly Cloudy
12:53 PM 82.9 °F 88.0 °F 72.0 °F 69% 30.10 in 10.0 mi East 16.1 mph - N/A   Partly Cloudy
1:53 PM 84.9 °F 90.7 °F 72.0 °F 65% 30.09 in 10.0 mi East 11.5 mph - N/A   Clear
2:53 PM 84.0 °F 88.4 °F 70.0 °F 63% 30.07 in 10.0 mi East 15.0 mph - N/A   Partly Cloudy
3:53 PM 84.9 °F 89.4 °F 70.0 °F 61% 30.04 in 10.0 mi East 16.1 mph 21.9 mph N/A   Clear
4:53 PM 84.9 °F 90.7 °F 72.0 °F 65% 30.03 in 10.0 mi East 11.5 mph - N/A   Clear
5:53 PM 81.0 °F 85.2 °F 72.0 °F 74% 30.03 in 10.0 mi ENE 16.1 mph 23.0 mph N/A   Mostly Cloudy
6:53 PM 82.0 °F 87.9 °F 73.9 °F 76% 30.02 in 10.0 mi ENE 8.1 mph - N/A   Partly Cloudy
7:36 PM 80.6 °F 85.4 °F 73.4 °F 79% 30.02 in 10.0 mi East 15.0 mph 24.2 mph 0.05 in   Overcast
7:44 PM 80.6 °F 85.4 °F 73.4 °F 79% 30.03 in 10.0 mi East 15.0 mph 24.2 mph 0.05 in   Overcast
7:51 PM 80.6 °F 85.4 °F 73.4 °F 79% 30.03 in 10.0 mi East 16.1 mph - 0.05 in   Overcast
7:53 PM 80.1 °F 84.5 °F 73.9 °F 81% 30.03 in 10.0 mi East 17.3 mph - 0.05 in   Overcast
8:53 PM 79.0 °F - 71.1 °F 77% 30.02 in 10.0 mi East 13.8 mph 20.7 mph N/A   Mostly Cloudy
9:53 PM 79.0 °F - 73.0 °F 82% 30.04 in 10.0 mi East 20.7 mph 27.6 mph N/A   Mostly Cloudy
10:53 PM 79.0 °F - 72.0 °F 79% 30.06 in 10.0 mi East 20.7 mph 27.6 mph N/A   Mostly Cloudy
11:53 PM 79.0 °F - 72.0 °F 79% 30.06 in 10.0 mi ESE 19.6 mph 29.9 mph N/A   Clear